Regional Weather Roundup
Issued by NWS

Home | Current Version | Previous Version | Graphics & Text | Print | Product List | Glossary On
Versions: 1 2 3 4 5 6 7 8 9 10 11 12 13 14 15 16 17 18 19 20 21 22 23 24 25 26 27 28 29 30 31 32 33 34 35 36 37 38 39 40 41 42 43 44 45 46 47 48 49 50
676
ASUS43 KTOP 211108
RWRKS

WEATHER ROUNDUP FOR KANSAS
NATIONAL WEATHER SERVICE GOODLAND KS
600 AM CDT SAT OCT 21 2017

NOTE:  "FAIR" INDICATES FEW OR NO CLOUDS BELOW 12,000 FEET WITH NO
SIGNIFICANT WEATHER AND/OR OBSTRUCTIONS TO VISIBILITY.

KSZ001>006-013>018-027>032-041>047-211200-
NORTHWEST KANSAS

CITY           SKY/WX    TMP DP  RH WIND       PRES   REMARKS
GOODLAND       CLOUDY    52  33  48 NW16G30   29.65R
HAYS           CLOUDY    66  60  81 S25G33    29.57R
HILL CITY      CLOUDY    66  58  75 S16G28    29.56R
RUSSELL        CLOUDY    67  63  87 S28G43    29.58R
$$

KSZ061>065-074>080-084>089-211200-
SOUTHWEST KANSAS

CITY           SKY/WX    TMP DP  RH WIND       PRES   REMARKS
DODGE CITY     CLEAR     62  57  83 S21G30    29.63R
ELKHART          N/A     57  49  75 SW8         N/A
GARDEN CITY    CLOUDY    61  55  81 S18       29.61R
GREAT BEND     CLOUDY    66  61  84 S25G38    29.63R
LIBERAL        CLEAR     61  57  87 S17       29.66R
PRATT          CLOUDY    66  60  81 S26       29.68S
$$

KSZ066>073-081>083-090>101-211200-
SOUTHEAST KANSAS

CITY           SKY/WX    TMP DP  RH WIND       PRES   REMARKS
CHANUTE        CLOUDY    66  58  75 S18       29.87R
HUTCHINSON     CLOUDY    69  64  84 S28G36    29.69S
MEDICINE LODGE   N/A     68  62  81 S21G31    29.69S
NEWTON         CLOUDY    68  63  84 S25G36    29.73R
PARSONS        CLOUDY    66  58  75 S13G22    29.88R
WICHITA INTL   CLOUDY    69  65  86 S24G31    29.74R
WICHITA JABRA  CLOUDY    69  65  86 S22G33    29.75S
WICHITA MCCONL CLOUDY    70  63  78 S23G29    29.75S
WINFIELD       MOCLDY    69  64  84 S21G28    29.79S
$$

KSZ007>012-019>026-033>040-048>060-102>105-211200-
NORTHEAST KANSAS

CITY           SKY/WX    TMP DP  RH WIND       PRES   REMARKS
CONCORDIA      LGT RAIN  68  63  84 S25G37    29.61R
EMPORIA        MOCLDY    64  59  83 S23G33    29.77F
LAWRENCE       CLOUDY    66  59  78 SE18      29.81R
MANHATTAN      CLOUDY    69  62  78 S17G28    29.70R
MARYSVILLE     CLOUDY    68  61  77 S22G35    29.65F
OLATHE IND     CLOUDY    64  57  78 S14G25    29.84R
OLATHE EXE     CLOUDY    63  57  81 S17       29.85R
SALINA         CLEAR     70  64  81 S20G35    29.65F
TOPEKA BILLARD CLOUDY    68  61  78 S22G32    29.76F
TOPEKA FORBES  CLOUDY    68  61  78 S17G32    29.77S
$$




USA.gov is the U.S. government's official web portal to all federal, state and local government web resources and services.